| time (UTC) | temp F | wind direction | speed MPH | gust MPH | rain 1hr in | rain 24hr in | rain mn in | humidity % | barometer mb |
| 20260505113009 | 51 | 324 | 7.0 | 11.0 | 0.00 | 0.00 | 0.00 | 27 | 1010.9 |
| 20260505111509 | 51 | 272 | 8.0 | 14.0 | 0.00 | 0.00 | 0.00 | 26 | 1010.9 |
| 20260505101516 | 52 | 348 | 5.0 | 13.0 | 0.00 | 0.00 | 0.00 | 27 | 1011.0 |
| 20260505100012 | 53 | 17 | 3.0 | 17.0 | 0.00 | 0.00 | 0.00 | 26 | 1011.0 |
| 20260505094519 | 53 | 299 | 3.0 | 10.0 | 0.00 | 0.00 | 0.00 | 25 | 1011.2 |
| 20260505093009 | 53 | 326 | 2.0 | 12.0 | 0.00 | 0.00 | 0.00 | 27 | 1011.1 |
| 20260505091510 | 54 | 305 | 1.0 | 8.0 | 0.00 | 0.00 | 0.00 | 27 | 1011.2 |
| 20260505090009 | 53 | 17 | 4.0 | 10.0 | 0.00 | 0.00 | 0.00 | 27 | 1011.2 |
| 20260505084509 | 50 | 51 | 3.0 | 7.0 | 0.00 | 0.00 | 0.00 | 30 | 1011.3 |
| 20260505083009 | 50 | 292 | 3.0 | 9.0 | 0.00 | 0.00 | 0.00 | 31 | 1011.4 |
| 20260505081510 | 50 | 51 | 4.0 | 9.0 | 0.00 | 0.00 | 0.00 | 29 | 1011.4 |
| 20260505080009 | 47 | 22 | 7.0 | 13.0 | 0.00 | 0.00 | 0.00 | 33 | 1011.4 |
| 20260505074509 | 45 | 14 | 7.0 | 17.0 | 0.00 | 0.00 | 0.00 | 36 | 1011.4 |
| 20260505073010 | 44 | 42 | 8.0 | 17.0 | 0.00 | 0.00 | 0.00 | 37 | 1011.4 |
| 20260505071509 | 44 | 360 | 7.0 | 15.0 | 0.00 | 0.00 | 0.00 | 39 | 1011.4 |
| 20260505070009 | 43 | 11 | 7.0 | 15.0 | 0.00 | 0.00 | 0.00 | 40 | 1011.5 |
| 20260505064510 | 42 | 5 | 11.0 | 16.0 | 0.00 | 0.00 | 0.00 | 42 | 1011.4 |
| 20260505063011 | 42 | 21 | 6.0 | 13.0 | 0.00 | 0.00 | 0.00 | 44 | 1011.3 |
| 20260505061510 | 41 | 5 | 6.0 | 17.0 | 0.00 | 0.00 | 0.00 | 47 | 1011.2 |
| 20260505060010 | 40 | 5 | 9.0 | 19.0 | 0.00 | 0.00 | 0.00 | 48 | 1011.2 |
| 20260505054510 | 40 | 12 | 4.0 | 12.0 | 0.00 | 0.00 | 0.00 | 51 | 1011.1 |
| 20260505053014 | 39 | 35 | 4.0 | 10.0 | 0.00 | 0.00 | 0.00 | 55 | 1011.1 |
| 20260505051513 | 38 | 50 | 6.0 | 10.0 | 0.00 | 0.00 | 0.00 | 55 | 1011.3 |
| 20260505041514 | 33 | 355 | 3.0 | 6.0 | 0.00 | 0.00 | 0.00 | 68 | 1011.2 |
| 20260505040010 | 33 | 355 | 4.0 | 8.0 | 0.00 | 0.00 | 0.00 | 68 | 1010.8 |
| 20260505034514 | 34 | 350 | 3.0 | 5.0 | 0.00 | 0.00 | 0.00 | 67 | 1010.9 |
| 20260505033010 | 34 | 350 | 2.0 | 5.0 | 0.00 | 0.00 | 0.00 | 66 | 1010.7 |
| 20260505031523 | 35 | 350 | 1.0 | 9.0 | 0.00 | 0.00 | 0.00 | 63 | 1010.7 |
| 20260505030010 | 36 | 355 | 3.0 | 9.0 | 0.00 | 0.00 | 0.00 | 60 | 1010.7 |
| 20260505024509 | 36 | 355 | 2.0 | 5.0 | 0.00 | 0.00 | 0.00 | 59 | 1010.8 |
| 20260505023011 | 36 | 355 | 1.0 | 6.0 | 0.00 | 0.00 | 0.00 | 59 | 1010.8 |
| 20260505021510 | 36 | 355 | 3.0 | 10.0 | 0.00 | 0.00 | 0.00 | 58 | 1010.6 |
| 20260505020010 | 36 | 5 | 3.0 | 5.0 | 0.00 | 0.00 | 0.00 | 59 | 1010.8 |
| 20260505014509 | 37 | 34 | 5.0 | 10.0 | 0.00 | 0.00 | 0.00 | 59 | 1010.7 |
| 20260505013010 | 37 | 329 | 2.0 | 9.0 | 0.00 | 0.00 | 0.00 | 59 | 1010.7 |
| 20260505011510 | 37 | 311 | 5.0 | 10.0 | 0.00 | 0.00 | 0.00 | 58 | 1010.7 |
| 20260505010009 | 38 | 340 | 2.0 | 9.0 | 0.00 | 0.00 | 0.00 | 59 | 1010.5 |
| 20260505004510 | 38 | 28 | 2.0 | 6.0 | 0.00 | 0.00 | 0.00 | 59 | 1010.6 |
| 20260505003010 | 38 | 5 | 3.0 | 6.0 | 0.00 | 0.00 | 0.00 | 60 | 1010.4 |
| 20260505001509 | 39 | 335 | 3.0 | 11.0 | 0.00 | 0.00 | 0.00 | 62 | 1010.3 |
| 20260505000011 | 40 | 355 | 5.0 | 10.0 | 0.00 | 0.00 | 0.00 | 63 | 1010.2 |
| 20260504234510 | 40 | 355 | 2.0 | 8.0 | 0.00 | 0.00 | 0.00 | 65 | 1010.0 |
| 20260504233010 | 40 | 302 | 3.0 | 9.0 | 0.00 | 0.00 | 0.00 | 67 | 1009.9 |
| 20260504231510 | 41 | 337 | 4.0 | 10.0 | 0.00 | 0.00 | 0.00 | 68 | 1009.8 |
| 20260504230011 | 41 | 308 | 4.0 | 10.0 | 0.00 | 0.00 | 0.00 | 69 | 1009.7 |
| 20260504224512 | 42 | 299 | 4.0 | 9.0 | 0.00 | 0.00 | 0.00 | 69 | 1009.7 |
| 20260504223024 | 42 | 325 | 3.0 | 8.0 | 0.00 | 0.00 | 0.00 | 74 | 1009.6 |
| 20260504221502 | 43 | 302 | 3.0 | 6.0 | 0.00 | 0.00 | 0.00 | 74 | 1009.5 |
| 20260504220015 | 43 | 294 | 2.0 | 7.0 | 0.00 | 0.00 | 0.00 | 73 | 1009.6 |
| 20260504214511 | 44 | 289 | 1.0 | 5.0 | 0.00 | 0.00 | 0.00 | 73 | 1009.4 |
| 20260504213021 | 44 | 286 | 4.0 | 9.0 | 0.00 | 0.00 | 0.00 | 73 | 1009.3 |
| 20260504211509 | 44 | 298 | 6.0 | 13.0 | 0.00 | 0.00 | 0.00 | 73 | 1009.2 |
| 20260504210011 | 45 | 252 | 6.0 | 12.0 | 0.00 | 0.00 | 0.00 | 74 | 1009.1 |
| 20260504204526 | 45 | 236 | 4.0 | 11.0 | 0.00 | 0.00 | 0.00 | 74 | 1009.0 |
| 20260504203015 | 46 | 259 | 6.0 | 14.0 | 0.00 | 0.00 | 0.00 | 73 | 1009.0 |
| 20260504201509 | 46 | 222 | 5.0 | 10.0 | 0.00 | 0.00 | 0.00 | 72 | 1008.8 |
| 20260504194509 | 47 | 252 | 6.0 | 15.0 | 0.00 | 0.00 | 0.00 | 69 | 1008.6 |
| 20260504190010 | 48 | 240 | 9.0 | 18.0 | 0.00 | 0.00 | 0.00 | 61 | 1008.4 |
| 20260504184511 | 49 | 244 | 8.0 | 17.0 | 0.00 | 0.00 | 0.00 | 60 | 1008.2 |
| 20260504183011 | 49 | 259 | 8.0 | 17.0 | 0.00 | 0.00 | 0.00 | 58 | 1008.1 |
| 20260504181513 | 50 | 248 | 8.0 | 26.0 | 0.00 | 0.00 | 0.00 | 58 | 1008.1 |
| 20260504180012 | 50 | 251 | 8.0 | 20.0 | 0.00 | 0.00 | 0.00 | 58 | 1008.1 |
| 20260504174510 | 51 | 268 | 12.0 | 19.0 | 0.00 | 0.00 | 0.00 | 56 | 1008.1 |
| 20260504173010 | 51 | 286 | 12.0 | 22.0 | 0.00 | 0.00 | 0.00 | 53 | 1008.2 |
| 20260504171511 | 51 | 285 | 5.0 | 19.0 | 0.00 | 0.00 | 0.00 | 54 | 1008.2 |